sat.trackr.live / text

‹ back to catalog

STARLINK-31041

NORAD 58537 · 2023-192G

PAYLOAD ACTIVE UNKNOWN

§ Identity

Operator
Country
US
Launch date
2023-12-08
Launch site
AFWTR
Launch vehicle
Mass (kg)
RCS (m²)

Purposes: comms

External: N2YO · Heavens-Above · Gunter

§ Orbital elements

Epoch: 2026-09-20T22:30:51.144480Z

Period
93.85 min
Inclination
53.1613°
Eccentricity
0.0001470
Mean motion
15.34392305 rev/d
Perigee alt
461.7 km
Apogee alt
463.7 km
Semi-major
6,840.9 km
B*
1.4444e-5
RAAN
231.9444°
Arg perigee
87.6374°
Mean anomaly
272.4797°
Rev number
15,593

§ Raw data

STARLINK-310411 58537U 23192G   26263.93809195  .00000112  00000+0  14444-4 0  99922 58537  53.1613 231.9444 0001470  87.6374 272.4797 15.34392305155939

JSON: /api/v1/satellites/58537 · /tle

For live sub-satellite position, see the globe view (requires WebGL).

§ Visibility from observer

Set your observer location to see the next 7 days of passes ≥ 10°. The values pass through the URL so the page stays shareable.

No JS? Fill the form by hand. The geolocation button needs JavaScript.